Location: Harwich
(41.7160°N, 69.9939°W)
Time: 15:19:40
(UTC+02:00)

Courier 1B Rocket - Pass Details

Date: 25 February 2024
Orbit: 920 x 1201 km, 28.2° (Epoch: 23 April)

Event Time Altitude Azimuth Distance (km) Brightness Sun altitude
Exits shadow 09:15:36 17° 142° (SE) 2,135 6.9 -35.0°
Drops below altitude 10° 09:17:44 10° 124° (SE) 2,611 7.6 -34.7°
Sets 09:20:57 0° 109° (ESE) 3,573 8.6 -34.1°
